Location: Cisewo
(53.3833°N, 14.9000°E)
Time: 11:54:32
(UTC+00:00)

BREEZE-M DEB (TANK) - Pass Details

Date: 18 April 2021
Orbit: 292 x 15380 km, 49.4° (Epoch: 13 May)

Event Time Altitude Azimuth Distance (km) Brightness Sun altitude
Rises 19:13:07 0° 264° (W) 10,591 10.2 -9.6°
Reaches altitude 10° 19:23:42 10° 265° (W) 7,057 9.2 -10.9°
Maximum altitude 19:38:59 65° 188° (S) 1,214 4.4 -12.7°
Enters shadow 19:42:15 18° 109° (ESE) 1,695 4.7 -13.1°
